When you browse on this site, cookies collect data to enhance your experience and personalize the content and advertising you see.
Visit our Privacy Policy to learn more. By continuing to use the site, you agree to this use of cookies and data.
  • In United Kingdom
  • List of Countries
  • For 7 days
  • Water Temperature
  • Weather Map
  • Weather Widgets
  • user-avatar
    Login

    Hourly Weather Buzau

    Today, 13 December, Friday

    Time Temperature Precipitation Wind Pressure Humidity
    00:00 +4°C° 0 mm 3 mps 748 mmHg 92%
    01:00 +4°C° 0 mm 3 mps 748 mmHg 92%
    02:00 +4°C° 0 mm 3 mps 748 mmHg 93%
    03:00 +4°C° 0 mm 3 mps 747 mmHg 93%
    04:00 +4°C° 0 mm 3 mps 746 mmHg 92%
    05:00 +6°C° 0 mm 2 mps 746 mmHg 92%
    06:00 +5°C° 0 mm 3 mps 746 mmHg 92%
    07:00 +5°C° 0 mm 3 mps 746 mmHg 93%
    08:00 +5°C° 0 mm 3 mps 746 mmHg 93%
    09:00 +5°C° 0 mm 3 mps 745 mmHg 91%
    10:00 +7°C° 0 mm 2 mps 745 mmHg 90%
    11:00 +7°C° 0 mm 2 mps 744 mmHg 89%
    12:00 +7°C° 0 mm 2 mps 744 mmHg 88%
    13:00 +7°C° 0 mm 2 mps 743 mmHg 87%
    14:00 +8°C° 0 mm 2 mps 743 mmHg 86%
    15:00 +7°C° 0 mm 2 mps 742 mmHg 88%
    16:00 +7°C° 0 mm 2 mps 742 mmHg 89%
    17:00 +7°C° 0 mm 2 mps 742 mmHg 91%
    18:00 +7°C° 0.4 mm 2 mps 742 mmHg 92%
    19:00 +7°C° 0.4 mm 2 mps 742 mmHg 93%
    20:00 +7°C° 0.4 mm 2 mps 742 mmHg 95%
    21:00 +7°C° 0.3 mm 2 mps 741 mmHg 95%
    22:00 +7°C° 0.3 mm 2 mps 741 mmHg 96%
    23:00 +7°C° 0.3 mm 2 mps 741 mmHg 97%

    Tomorrow, 14 December, Saturday

    Time Temperature Precipitation Wind Pressure Humidity
    00:00 +8°C° 0 mm 1 mps 741 mmHg 97%
    01:00 +8°C° 0 mm 1 mps 740 mmHg 96%
    02:00 +8°C° 0 mm 1 mps 740 mmHg 96%
    03:00 +8°C° 0 mm 1 mps 740 mmHg 96%
    04:00 +7°C° 0 mm 2 mps 740 mmHg 96%
    05:00 +7°C° 0 mm 2 mps 740 mmHg 96%
    06:00 +7°C° 0 mm 2 mps 740 mmHg 96%
    07:00 +7°C° 0 mm 2 mps 741 mmHg 96%
    08:00 +7°C° 0 mm 2 mps 741 mmHg 96%
    09:00 +8°C° 0 mm 2 mps 741 mmHg 92%
    10:00 +9°C° 0 mm 2 mps 742 mmHg 88%
    11:00 +10°C° 0 mm 2 mps 742 mmHg 83%
    12:00 +12°C° 0 mm 2 mps 742 mmHg 80%
    13:00 +12°C° 0 mm 2 mps 742 mmHg 76%
    14:00 +13°C° 0 mm 1 mps 742 mmHg 72%
    15:00 +12°C° 0 mm 1 mps 743 mmHg 75%
    16:00 +12°C° 0 mm 1 mps 743 mmHg 78%
    17:00 +10°C° 0 mm 2 mps 744 mmHg 81%
    18:00 +11°C° 0 mm 1 mps 745 mmHg 81%
    19:00 +11°C° 0 mm 1 mps 746 mmHg 81%
    20:00 +11°C° 0 mm 1 mps 746 mmHg 81%
    21:00 +11°C° 0.1 mm 1 mps 747 mmHg 82%
    22:00 +11°C° 0.1 mm 1 mps 748 mmHg 83%
    23:00 +11°C° 0.1 mm 1 mps 748 mmHg 85%

    Day after tomorrow, 15 December, Sunday

    Time Temperature Precipitation Wind Pressure Humidity
    00:00 +11°C° 0.4 mm 1 mps 749 mmHg 87%
    01:00 +11°C° 0.4 mm 1 mps 749 mmHg 89%
    02:00 +11°C° 0.4 mm 1 mps 750 mmHg 91%
    03:00 +11°C° 0.1 mm 1 mps 751 mmHg 89%
    04:00 +10°C° 0.1 mm 1 mps 751 mmHg 87%
    05:00 +10°C° 0.1 mm 1 mps 752 mmHg 85%
    06:00 +10°C° 0 mm 1 mps 752 mmHg 82%
    07:00 +10°C° 0 mm 1 mps 753 mmHg 79%
    08:00 +9°C° 0 mm 2 mps 754 mmHg 76%
    09:00 +9°C° 0 mm 2 mps 755 mmHg 69%
    10:00 +10°C° 0 mm 2 mps 755 mmHg 63%
    11:00 +12°C° 0 mm 2 mps 756 mmHg 56%
    12:00 +12°C° 0 mm 1 mps 756 mmHg 55%
    13:00 +13°C° 0 mm 1 mps 756 mmHg 53%
    14:00 +13°C° 0 mm 1 mps 756 mmHg 52%
    15:00 +12°C° 0 mm 1 mps 756 mmHg 55%
    16:00 +11°C° 0 mm 1 mps 757 mmHg 59%
    17:00 +10°C° 0 mm 1 mps 757 mmHg 63%
    18:00 +10°C° 0 mm 1 mps 758 mmHg 64%
    19:00 +9°C° 0 mm 1 mps 758 mmHg 66%
    20:00 +9°C° 0 mm 1 mps 758 mmHg 68%
    21:00 +9°C° 0 mm 1 mps 759 mmHg 70%
    22:00 +8°C° 0 mm 1 mps 759 mmHg 71%
    23:00 +8°C° 0 mm 1 mps 759 mmHg 73%

    16 December, Monday

    Time Temperature Precipitation Wind Pressure Humidity
    00:00 +8°C° 0 mm 1 mps 759 mmHg 75%
    01:00 +7°C° 0 mm 1 mps 759 mmHg 77%
    02:00 +6°C° 0 mm 2 mps 759 mmHg 79%
    03:00 +6°C° 0 mm 2 mps 759 mmHg 79%
    04:00 +6°C° 0 mm 2 mps 759 mmHg 80%
    05:00 +5°C° 0 mm 2 mps 759 mmHg 81%
    06:00 +5°C° 0 mm 2 mps 759 mmHg 81%
    07:00 +5°C° 0 mm 2 mps 760 mmHg 80%
    08:00 +5°C° 0 mm 2 mps 760 mmHg 79%
    09:00 +6°C° 0 mm 2 mps 760 mmHg 72%
    10:00 +8°C° 0 mm 3 mps 760 mmHg 66%
    11:00 +9°C° 0 mm 3 mps 760 mmHg 60%
    12:00 +10°C° 0 mm 3 mps 760 mmHg 57%
    13:00 +11°C° 0 mm 3 mps 759 mmHg 54%
    14:00 +12°C° 0 mm 3 mps 759 mmHg 51%
    15:00 +11°C° 0 mm 3 mps 759 mmHg 56%
    16:00 +10°C° 0 mm 3 mps 759 mmHg 60%
    17:00 +8°C° 0 mm 2 mps 759 mmHg 64%
    18:00 +8°C° 0 mm 2 mps 759 mmHg 65%
    19:00 +8°C° 0 mm 2 mps 759 mmHg 66%
    20:00 +7°C° 0 mm 2 mps 759 mmHg 67%
    21:00 +7°C° 0 mm 2 mps 759 mmHg 67%
    22:00 +7°C° 0 mm 2 mps 759 mmHg 68%
    23:00 +7°C° 0 mm 3 mps 759 mmHg 68%

    17 December, Tuesday

    Time Temperature Precipitation Wind Pressure Humidity
    00:00 +7°C° 0 mm 3 mps 759 mmHg 68%
    01:00 +5°C° 0 mm 3 mps 759 mmHg 67%
    02:00 +5°C° 0 mm 3 mps 759 mmHg 66%
    03:00 +5°C° 0 mm 3 mps 758 mmHg 66%
    04:00 +5°C° 0 mm 3 mps 758 mmHg 65%
    05:00 +5°C° 0 mm 3 mps 758 mmHg 65%
    06:00 +5°C° 0 mm 3 mps 758 mmHg 65%
    07:00 +5°C° 0 mm 3 mps 758 mmHg 65%
    08:00 +5°C° 0 mm 3 mps 758 mmHg 65%
    09:00 +8°C° 0 mm 3 mps 759 mmHg 61%
    10:00 +9°C° 0 mm 3 mps 759 mmHg 57%
    11:00 +11°C° 0 mm 3 mps 759 mmHg 53%
    12:00 +11°C° 0 mm 3 mps 758 mmHg 52%
    13:00 +12°C° 0 mm 3 mps 758 mmHg 51%
    14:00 +13°C° 0 mm 3 mps 757 mmHg 51%
    15:00 +12°C° 0 mm 3 mps 758 mmHg 55%
    16:00 +11°C° 0 mm 3 mps 758 mmHg 60%
    17:00 +10°C° 0 mm 3 mps 758 mmHg 65%
    18:00 +9°C° 0 mm 3 mps 758 mmHg 65%
    19:00 +9°C° 0 mm 3 mps 758 mmHg 66%
    20:00 +9°C° 0 mm 3 mps 758 mmHg 66%
    21:00 +9°C° 0 mm 3 mps 758 mmHg 66%
    22:00 +8°C° 0 mm 3 mps 758 mmHg 65%
    23:00 +8°C° 0 mm 3 mps 758 mmHg 65%

    18 December, Wednesday

    Time Temperature Precipitation Wind Pressure Humidity
    00:00 +8°C° 0 mm 3 mps 758 mmHg 64%
    01:00 +8°C° 0 mm 3 mps 758 mmHg 63%
    02:00 +8°C° 0 mm 3 mps 758 mmHg 62%
    03:00 +8°C° 0 mm 3 mps 758 mmHg 61%
    04:00 +8°C° 0 mm 3 mps 758 mmHg 60%
    05:00 +8°C° 0 mm 2 mps 758 mmHg 59%
    06:00 +8°C° 0 mm 2 mps 758 mmHg 59%
    07:00 +8°C° 0 mm 2 mps 758 mmHg 58%
    08:00 +8°C° 0 mm 2 mps 758 mmHg 58%
    09:00 +9°C° 0 mm 2 mps 759 mmHg 53%
    10:00 +12°C° 0 mm 2 mps 759 mmHg 49%
    11:00 +14°C° 0 mm 2 mps 759 mmHg 44%
    12:00 +15°C° 0 mm 2 mps 759 mmHg 43%
    13:00 +15°C° 0 mm 2 mps 759 mmHg 42%
    14:00 +16°C° 0 mm 2 mps 758 mmHg 41%
    15:00 +15°C° 0 mm 1 mps 759 mmHg 46%
    16:00 +13°C° 0 mm 1 mps 759 mmHg 50%
    17:00 +12°C° 0 mm 1 mps 759 mmHg 55%
    18:00 +12°C° 0 mm 1 mps 760 mmHg 56%
    19:00 +11°C° 0 mm 1 mps 760 mmHg 56%
    20:00 +11°C° 0 mm 1 mps 760 mmHg 57%
    21:00 +11°C° 0 mm 1 mps 760 mmHg 57%
    22:00 +9°C° 0 mm 2 mps 761 mmHg 58%
    23:00 +9°C° 0 mm 2 mps 761 mmHg 58%
    Show more